Flag for U.S.A. Weather past 2 weeks in Santa Rosa, California, U.S.A.

Now
94 °F

Scattered clouds.


Feels Like: 91 °F
Forecast: 59 / 90 °F
Wind: 12 mph from South

Location: Santa Rosa Sonoma County Airport

Current Time: Aug 28, 2015 at 4:14:47 PM

Latest Report: Aug 28, 2015 at 2:53 PM


Visibility: 10 mi

Pressure: 29.82 "Hg

Humidity: 25%

Dew point: 53 °F

Location of Santa RosaLocation

Historic Weather in Santa Rosa — Graph

°F

Santa Rosa temperature yesterday

Maximum temperature yesterday: 95 °F (at 2:53 PM)
Minimum temperature yesterday: 53 °F (at 4:53 AM)
Average temperature yesterday: 74 °F

Past Weeks' High & Low Weather Summary

 TemperatureHumidityPressure
High102 °F (Aug 16, 3:53 PM)97% (Aug 14, 3:53 AM)30.05 "Hg (Aug 14, 3:53 AM)
Low52 °F (Aug 14, 5:53 AM)10% (Aug 16, 2:53 PM)29.75 "Hg (Aug 17, 4:53 PM)
Average68 °F67%29.91 "Hg
* Reported Aug 13 2:53 PM — Aug 28 2:53 PM, Santa Rosa, Weather by CustomWeather, © 2015

Note: Actual official high and low records may vary slightly from our data, if they occured in-between our weather recording intervals... More about our weather records

Advertising

Santa Rosa weather history for previous 24 hours

 ConditionsComfort  
Time TempWeatherWind HumidityBarometerVisibility
2:53 PM
Fri, Aug 28
94 °FScattered clouds.12 mph25%29.82 "Hg10 mi
1:53 PM93 °FScattered clouds.3 mph27%29.83 "Hg10 mi
12:53 PM89 °FPartly sunny.3 mph31%29.86 "Hg10 mi
11:53 AM85 °FPartly sunny.3 mph35%29.87 "Hg10 mi
10:53 AM79 °FPartly sunny.No wind41%29.88 "Hg10 mi
9:53 AM74 °FPartly sunny.No wind50%29.89 "Hg10 mi
8:53 AM69 °FBroken clouds.No wind59%29.89 "Hg10 mi
7:53 AM65 °FPartly sunny.No wind66%29.88 "Hg10 mi
6:53 AM62 °FPassing clouds.No wind73%29.87 "Hg10 mi
5:53 AM60 °FClear.No wind75%29.87 "Hg10 mi
4:53 AM62 °FClear.No wind70%29.88 "Hg10 mi
3:53 AM63 °FClear.3 mph68%29.89 "Hg10 mi
2:53 AM64 °FClear.No wind65%29.90 "Hg10 mi
1:53 AM63 °FClear.3 mph65%29.91 "Hg10 mi
12:53 AM65 °FClear.No wind61%29.92 "Hg10 mi
11:53 PM
Thu, Aug 27
67 °FClear.No wind55%29.92 "Hg10 mi
10:53 PM70 °FClear.No wind49%29.93 "Hg10 mi
9:53 PM74 °FClear.3 mph43%29.93 "Hg10 mi
8:53 PM76 °FClear.3 mph39%29.92 "Hg10 mi
7:53 PM81 °FSunny.6 mph33%29.90 "Hg10 mi
6:53 PM88 °FSunny.5 mph30%29.90 "Hg10 mi
5:53 PM91 °FPartly sunny.6 mph25%29.91 "Hg10 mi
4:53 PM94 °FScattered clouds.13 mph21%29.92 "Hg10 mi
Weather by CustomWeather, © 2015

See weather overviewHow to use our weather pages